Venice, Italy

4:34 AM CEST on October 17, 2017 (GMT +0200)
Tessera

Weather History for LIPZ - August, 2013

Change the Weather History Date:

Monday, August 19, 2013

  Actual Average Record
Temperature  
Mean Temperature 73 °F -  
Max Temperature 82 °F 77 °F 89 °F (2003)
Min Temperature 64 °F 60 °F 62 °F (2014)
Cooling Degree Days 8    
Growing Degree Days 23 (Base 50)    
Moisture  
Dew Point 68 °F    
Average Humidity 79    
Maximum Humidity 100    
Minimum Humidity 54    
Precipitation  
Precipitation 0.00 in 0.09 in - ()
Sea Level Pressure  
Sea Level Pressure 29.96 in    
Wind  
Wind Speed 5 mph ()    
Max Wind Speed 32 mph    
Max Gust Speed -    
Visibility 3.4 miles    
Events Fog , Rain , Thunderstorm    
Averages and records for this station are not official NWS values.
T = Trace of Precipitation, MM = Missing Value Source: Averaged Metar Reports

Daily Weather History Graph

Daily Weather History Graph

Search for Another Location

Airport or City:

Trip Planner

Search our weather history database for the weather conditions in past years. The results will help you decide how hot, cold, wet, or windy it might be!

Date:

Astronomy

Aug. 19, 2013 Rise Set
Actual Time 6:16 AM CEST 8:11 PM CEST
Civil Twilight 5:44 AM CEST 8:43 PM CEST
Nautical Twilight 5:05 AM CEST 9:22 PM CEST
Astronomical Twilight 4:22 AM CEST 10:04 PM CEST
Moon 6:51 PM CEST (8/19) 4:12 AM CEST (8/19)
Length of Visible Light 14h 58m
Length of Day
13h 55m
Waxing Gibbous, 96% of the Moon is Illuminated
Aug 19
Waxing Gibbous
Aug 21
Full
Aug 28
Last Quarter
Sep 5
New
Sep 12
First Quarter

Hourly Weather History & Observations

Time (CEST) Temp. Heat Index Dew Point Humidity Pressure Visibility Wind Dir Wind Speed Gust Speed Precip Events Conditions
12:20 AM 75.2 °F - 68.0 °F 78% 30.01 in - SSW 4.6 mph - N/A   Clear
12:50 AM 75.2 °F - 66.2 °F 73% 30.01 in - Variable 3.5 mph - N/A   Clear
1:20 AM 73.4 °F - 66.2 °F 78% 29.98 in - Variable 3.5 mph - N/A   Clear
1:50 AM 73.4 °F - 66.2 °F 78% 29.98 in - Variable 3.5 mph - N/A   Clear
2:20 AM 69.8 °F - 64.4 °F 83% 29.98 in - North 4.6 mph - N/A   Clear
2:50 AM 69.8 °F - 64.4 °F 83% 30.01 in - Variable 3.5 mph - N/A   Clear
3:20 AM 71.6 °F - 64.4 °F 78% 29.98 in - Variable 3.5 mph - N/A   Clear
3:50 AM 69.8 °F - 62.6 °F 78% 29.98 in - NE 4.6 mph - N/A   Clear
4:20 AM 69.8 °F - 64.4 °F 83% 29.98 in 3.7 mi Variable 3.5 mph - N/A   Unknown
4:50 AM 71.6 °F - 69.8 °F 94% 29.98 in 2.8 mi Variable 2.3 mph - N/A   Mist
5:20 AM 66.2 °F - 66.2 °F 100% 29.98 in 1.6 mi North 4.6 mph - N/A   Mist
5:50 AM 66.2 °F - 66.2 °F 100% 29.98 in 1.6 mi Variable 3.5 mph - N/A   Mist
6:20 AM 66.2 °F - 66.2 °F 100% 29.98 in 1.1 mi Variable 3.5 mph - N/A   Mist
6:50 AM 64.4 °F - 64.4 °F 100% 29.98 in 0.5 mi North 4.6 mph - N/A Fog Patches of Fog
7:20 AM 64.4 °F - 64.4 °F 100% 29.98 in 0.1 mi North 4.6 mph - N/A Fog Fog
7:50 AM 64.4 °F - 64.4 °F 100% 30.01 in 0.1 mi Variable 3.5 mph - N/A Fog Fog
8:20 AM 66.2 °F - 66.2 °F 100% 29.98 in 0.1 mi Variable 3.5 mph - N/A Fog Fog
8:50 AM 68.0 °F - 68.0 °F 100% 30.01 in 0.2 mi Variable 3.5 mph - N/A Fog Fog
9:20 AM 69.8 °F - 68.0 °F 94% 30.01 in 0.3 mi Variable 2.3 mph - N/A Fog Fog
9:50 AM 69.8 °F - 69.8 °F 100% 30.01 in 0.9 mi Variable 2.3 mph - N/A   Mostly Cloudy
10:20 AM 73.4 °F - 73.4 °F 100% 30.01 in 2.5 mi Variable 2.3 mph - N/A   Mostly Cloudy
11:20 AM 78.8 °F - 73.4 °F 83% 30.01 in 4.3 mi Variable 2.3 mph - N/A   Unknown
11:50 AM 78.8 °F - 71.6 °F 78% 29.98 in 5.0 mi Variable 2.3 mph - N/A   Unknown
12:20 PM 80.6 °F 84.6 °F 71.6 °F 74% 29.98 in 5.6 mi Variable 3.5 mph - N/A   Unknown
12:50 PM 80.6 °F 84.6 °F 71.6 °F 74% 29.98 in - Variable 3.5 mph - N/A   Clear
1:20 PM 82.4 °F 85.4 °F 68.0 °F 62% 29.98 in - SE 5.8 mph - N/A   Clear
1:50 PM 82.4 °F 88.2 °F 73.4 °F 74% 29.95 in - SE 5.8 mph - N/A   Clear
2:20 PM 80.6 °F 84.6 °F 71.6 °F 74% 29.95 in - SE 9.2 mph - N/A   Clear
2:50 PM 80.6 °F 84.6 °F 71.6 °F 74% 29.95 in - Variable 8.1 mph - N/A   Clear
3:20 PM 82.4 °F 85.4 °F 68.0 °F 62% 29.95 in - SE 8.1 mph - N/A   Clear
3:50 PM 80.6 °F 84.6 °F 71.6 °F 74% 29.92 in - SE 8.1 mph - N/A   Clear
4:20 PM 80.6 °F 83.2 °F 68.0 °F 65% 29.92 in - SE 9.2 mph - N/A   Clear
4:50 PM 82.4 °F 84.6 °F 66.2 °F 58% 29.92 in - SE 9.2 mph - N/A   Clear
5:20 PM 82.4 °F 83.9 °F 64.4 °F 54% 29.89 in - SE 8.1 mph - N/A   Clear
5:50 PM 80.6 °F 82.7 °F 66.2 °F 61% 29.89 in - SE 8.1 mph - N/A   Clear
6:20 PM 82.4 °F 83.9 °F 64.4 °F 54% 29.89 in - SE 5.8 mph - N/A   Clear
6:50 PM 80.6 °F 83.9 °F 69.8 °F 70% 29.89 in - SE 6.9 mph - N/A   Clear
7:20 PM 78.8 °F - 68.0 °F 69% 29.89 in 6.2 mi SE 6.9 mph - N/A   Scattered Clouds
7:50 PM 78.8 °F - 69.8 °F 74% 29.89 in 6.2 mi SE 4.6 mph - N/A   Mostly Cloudy
8:20 PM 78.8 °F - 68.0 °F 69% 29.86 in 6.2 mi Variable 3.5 mph - N/A   Mostly Cloudy
8:50 PM 78.8 °F - 68.0 °F 69% 29.89 in 6.2 mi SSE 4.6 mph - N/A   Mostly Cloudy
9:20 PM 78.8 °F - 68.0 °F 69% 29.89 in 6.2 mi Variable 2.3 mph - N/A   Mostly Cloudy
9:50 PM 78.8 °F - 69.8 °F 74% 29.92 in 6.2 mi Variable 2.3 mph - N/A   Mostly Cloudy
10:20 PM 78.8 °F - 71.6 °F 78% 29.89 in 6.2 mi Variable 3.5 mph - N/A   Mostly Cloudy
10:50 PM 77.0 °F - 69.8 °F 78% 29.95 in 5.0 mi South 4.6 mph - N/A Rain , Thunderstorm Thunderstorms and Rain
11:20 PM 75.2 °F - 66.2 °F 73% 29.95 in 5.0 mi NE 32.2 mph - N/A Rain , Thunderstorm Light Thunderstorms and Rain
11:50 PM 68.0 °F - 64.4 °F 88% 29.98 in 3.7 mi NE 26.5 mph - N/A Rain , Thunderstorm Thunderstorms and Rain